Location: Newark
(39.0622°N, 106.5590°E)
Time: 13:13:31
(UTC+00:00)

Vanguard 1 - Visible Passes

Search period start: 20 January 2020 00:00
Search period end: 30 January 2020 00:00
Orbit: 651 x 3832 km, 34.2° (Epoch: 20 January)

Date Brightness Start Highest point End Pass type
(mag) Time Alt. Az. Time Alt. Az. Time Alt. Az.
20 Jan 10.2 11:30:54 10° WSW 11:35:29 48° SSE 11:38:38 27° ESE visible
20 Jan 12.1 13:49:42 10° W 13:51:21 21° WSW 13:51:21 21° WSW visible
21 Jan 10.1 11:51:36 10° WSW 11:56:19 54° S 11:58:28 37° ESE visible
21 Jan 12.5 14:10:34 10° W 14:11:11 14° W 14:11:11 14° W visible
22 Jan 10.1 12:12:22 10° WSW 12:17:12 56° S 12:18:18 49° SE visible
23 Jan 10.2 12:33:11 10° W 12:38:07 55° S 12:38:10 55° S visible
24 Jan 10.1 10:34:58 10° WSW 10:39:11 44° SSE 10:44:29 10° E visible
24 Jan 10.7 12:54:01 10° W 12:58:02 45° SW 12:58:02 45° SW visible
25 Jan 10.0 10:55:43 10° WSW 11:00:01 50° S 11:05:12 12° E visible
25 Jan 11.3 13:14:55 10° W 13:17:55 32° SW 13:17:55 32° SW visible
26 Jan 10.0 11:16:32 10° WSW 11:20:52 51° S 11:25:06 17° ESE visible
26 Jan 11.9 13:35:53 10° W 13:37:49 22° WSW 13:37:49 22° WSW visible
27 Jan 10.1 11:37:23 10° W 11:41:45 48° S 11:45:02 23° ESE visible
27 Jan 12.4 13:56:59 10° WSW 13:57:46 14° WSW 13:57:46 14° WSW visible
28 Jan 10.4 11:58:16 10° W 12:02:37 43° S 12:05:00 28° SE visible
29 Jan 10.7 12:19:13 10° W 12:23:32 35° SSW 12:25:00 31° SSE visible
